Location: Cormont
(50.5693°N, 1.7416°E)
Time: 12:16:09
(UTC+00:00)

Cosmos 1076 Rocket - Pass Details

Date: 21 October 2019
Orbit: 589 x 613 km, 82.5° (Epoch: 18 November)

Event Time Altitude Azimuth Distance (km) Brightness Sun altitude
Rises 18:52:56 0° 346° (NNW) 2,891 7.3 -20.2°
Reaches altitude 10° 18:55:12 10° 343° (NNW) 1,979 6.4 -20.6°
Maximum altitude 18:59:29 58° 265° (W) 716 4.1 -21.3°
Drops below altitude 10° 19:03:44 10° 186° (S) 1,951 6.1 -21.9°
Sets 19:05:57 0° 183° (S) 2,846 6.9 -22.3°
